Weather History for Air Force Academy, CO

Change the Weather History Date:

Sunday, February 10, 2013

  Actual Average Record
Temperature  
Mean Temperature 24 °F -  
Max Temperature 30 °F 41 °F 60 °F (1999)
Min Temperature 17 °F 18 °F -1 °F (2011)
Degree Days  
Heating Degree Days 42    
Moisture  
Dew Point 16 °F    
Average Humidity 74    
Maximum Humidity 93    
Minimum Humidity 40    
Precipitation  
Precipitation 0.00 in - - ()
Sea Level Pressure  
Sea Level Pressure 29.85 in    
Wind  
Wind Speed 10 mph (NNW)    
Max Wind Speed 18 mph    
Max Gust Speed 28 mph    
Visibility 7 miles    
Events Snow    
Averages and records for this station are not official NWS values.
T = Trace of Precipitation, MM = Missing Value Source: NWS Daily Summary

Daily Weather History Graph

Daily Weather History Graph

Search for Another Location

Airport:

Trip Planner

Search our weather history database for the weather conditions in past years. The results will help you decide how hot, cold, wet, or windy it might be!

Date:

Astronomy

Feb. 10, 2013 Rise Set
Actual Time 6:56 AM MST 5:31 PM MST
Civil Twilight 6:28 AM MST 5:58 PM MST
Nautical Twilight 5:57 AM MST 6:30 PM MST
Astronomical Twilight 5:26 AM MST 7:01 PM MST
Moon 6:48 AM MST (2/10) 6:23 PM MST (2/10)
Length of Visible Light 11h 30m
Length of Day
10h 35m
New Moon, 0% of the Moon is Illuminated
Feb 10
New Moon
Feb 17
First Quarter
Feb 25
Full
Mar 4
Last Quarter
Mar 11
New

Hourly Weather History & Observations

Time (MST) Temp. Windchill Dew Point Humidity Pressure Visibility Wind Dir Wind Speed Gust Speed Precip Events Conditions
12:58 AM 22.6 °F 10.1 °F 16.9 °F 79% 29.55 in 10.0 mi North 13.8 mph - 0.00 in   Clear
1:58 AM 22.8 °F 8.5 °F 15.1 °F 72% 29.57 in 10.0 mi North 18.4 mph 27.6 mph N/A   Clear
2:58 AM 23.4 °F 12.2 °F 9.9 °F 56% 29.59 in 10.0 mi NNW 11.5 mph - N/A   Clear
3:58 AM 24.1 °F 13.7 °F 3.0 °F 40% 29.60 in 10.0 mi North 10.4 mph - N/A   Clear
4:58 AM 21.6 °F 11.3 °F 7.3 °F 54% 29.68 in 10.0 mi NW 9.2 mph - N/A   Clear
5:58 AM 19.4 °F 7.2 °F 12.6 °F 75% 29.72 in 10.0 mi NNW 11.5 mph - N/A   Clear
6:58 AM 20.5 °F 9.2 °F 12.2 °F 70% 29.75 in 10.0 mi North 10.4 mph - N/A   Clear
7:32 AM 23.0 °F 9.6 °F 14.0 °F 68% 29.66 in 10.0 mi North 16.1 mph - N/A   Clear
7:35 AM 23.0 °F 8.7 °F 15.8 °F 74% 29.67 in 10.0 mi North 18.4 mph - N/A   Partly Cloudy
7:40 AM 23.0 °F 9.6 °F 15.8 °F 74% 29.67 in 6.0 mi North 16.1 mph - N/A Snow Blowing Snow
7:45 AM 23.0 °F 10.1 °F 17.6 °F 80% 29.68 in 5.0 mi North 15.0 mph - N/A   Mostly Cloudy
7:50 AM 23.0 °F 11.1 °F 17.6 °F 80% 29.68 in 4.0 mi NNW 12.7 mph - N/A   Mostly Cloudy
7:58 AM 22.8 °F 9.9 °F 17.6 °F 80% 29.79 in 4.0 mi NNW 15.0 mph - 0.00 in   Overcast
8:13 AM 23.0 °F 10.1 °F 17.6 °F 80% 29.70 in 5.0 mi NNW 15.0 mph 20.7 mph N/A   Overcast
8:27 AM 23.0 °F 11.1 °F 17.6 °F 80% 29.71 in 9.0 mi NNW 12.7 mph - N/A   Mostly Cloudy
8:38 AM 23.0 °F 12.4 °F 17.6 °F 80% 29.72 in 7.0 mi NNW 10.4 mph - N/A   Mostly Cloudy
8:53 AM 23.0 °F 12.4 °F 17.6 °F 80% 29.72 in 7.0 mi NNW 10.4 mph - N/A Snow Light Snow
8:58 AM 23.5 °F 13.0 °F 17.6 °F 78% 29.82 in 7.0 mi NW 10.4 mph - 0.00 in Snow Light Snow
9:13 AM 24.8 °F 15.3 °F 17.6 °F 74% 29.73 in 10.0 mi NNW 9.2 mph - N/A   Scattered Clouds
9:18 AM 24.8 °F 14.0 °F 17.6 °F 74% 29.74 in 9.0 mi NNW 11.5 mph - N/A   Mostly Cloudy
9:33 AM 24.8 °F 12.4 °F 17.6 °F 74% 29.74 in 4.0 mi North 15.0 mph 20.7 mph N/A Snow Light Snow
9:38 AM 24.8 °F 12.9 °F 17.6 °F 74% 29.75 in 5.0 mi North 13.8 mph 20.7 mph N/A Snow Light Snow
9:53 AM 24.8 °F 11.1 °F 17.6 °F 74% 29.75 in 8.0 mi North 18.4 mph - N/A   Mostly Cloudy
9:58 AM 25.2 °F 13.3 °F 16.7 °F 70% 29.87 in 10.0 mi NNW 13.8 mph 24.2 mph 0.00 in   Mostly Cloudy
10:00 AM 24.8 °F 12.9 °F 15.8 °F 69% 29.76 in 10.0 mi NNW 13.8 mph 24.2 mph N/A   Mostly Cloudy
10:05 AM 26.6 °F 14.3 °F 15.8 °F 64% 29.76 in 10.0 mi NNW 16.1 mph - N/A   Scattered Clouds
10:35 AM 26.6 °F 14.3 °F 15.8 °F 64% 29.76 in 10.0 mi NNW 16.1 mph - N/A   Partly Cloudy
10:45 AM 26.6 °F 14.7 °F 17.6 °F 69% 29.77 in 7.0 mi NNW 15.0 mph - N/A Snow Light Snow
10:58 AM 27.1 °F 15.9 °F 17.6 °F 67% 29.89 in 10.0 mi North 13.8 mph - 0.00 in   Mostly Cloudy
11:08 AM 28.4 °F 17.5 °F 17.6 °F 64% 29.77 in 10.0 mi North 13.8 mph 21.9 mph N/A   Mostly Cloudy
11:23 AM 28.4 °F 18.0 °F 15.8 °F 59% 29.78 in 10.0 mi North 12.7 mph 20.7 mph N/A   Scattered Clouds
11:25 AM 28.4 °F 15.8 °F 14.0 °F 55% 29.78 in 10.0 mi NNW 18.4 mph - N/A   Scattered Clouds
11:54 AM 30.2 °F 18.1 °F 12.2 °F 47% 29.77 in 10.0 mi NNE 18.4 mph 24.2 mph N/A   Scattered Clouds
11:58 AM 29.3 °F 18.6 °F 12.7 °F 50% 29.87 in 10.0 mi North 13.8 mph 24.2 mph 0.00 in   Scattered Clouds
12:57 PM 30.2 °F 18.9 °F 12.2 °F 47% 29.75 in 10.0 mi NNW 16.1 mph - N/A   Scattered Clouds
12:58 PM 30.2 °F 19.3 °F 12.7 °F 48% 29.85 in 10.0 mi NNW 15.0 mph - N/A   Scattered Clouds
1:06 PM 30.2 °F 18.5 °F 10.4 °F 44% 29.75 in 10.0 mi North 17.3 mph - N/A   Scattered Clouds
1:07 PM 30.2 °F 18.9 °F 10.4 °F 44% 29.75 in 10.0 mi NNE 16.1 mph - N/A   Scattered Clouds
1:58 PM 29.3 °F 20.2 °F 11.1 °F 47% 29.86 in 10.0 mi NNW 10.4 mph - N/A   Partly Cloudy
2:58 PM 28.8 °F 20.2 °F 9.9 °F 45% 29.88 in 10.0 mi North 9.2 mph - N/A   Partly Cloudy
3:55 PM 28.4 °F 19.7 °F 12.2 °F 51% 29.81 in 10.0 mi North 9.2 mph - N/A   Mostly Cloudy
3:57 PM 28.4 °F 19.7 °F 12.2 °F 51% 29.80 in 10.0 mi NNE 9.2 mph - N/A   Mostly Cloudy
3:58 PM 28.4 °F 20.4 °F 12.2 °F 51% 29.90 in 10.0 mi NNE 8.1 mph - N/A   Mostly Cloudy
4:04 PM 28.4 °F 22.2 °F 12.2 °F 51% 29.81 in 10.0 mi NE 5.8 mph - N/A   Mostly Cloudy
4:09 PM 28.4 °F - 14.0 °F 55% 29.81 in 6.0 mi NE 1.2 mph - N/A Snow Light Snow
4:19 PM 26.6 °F 17.5 °F 15.8 °F 64% 29.82 in 4.0 mi NW 9.2 mph - N/A Snow Light Snow
4:24 PM 26.6 °F 19.1 °F 17.6 °F 69% 29.82 in 3.0 mi NW 6.9 mph - N/A Snow Light Snow
4:29 PM 24.8 °F 19.1 °F 17.6 °F 74% 29.83 in 4.0 mi NNW 4.6 mph - N/A Snow Light Snow
4:34 PM 24.8 °F 19.1 °F 17.6 °F 74% 29.83 in 9.0 mi Variable 4.6 mph - N/A Snow Light Snow
4:39 PM 24.8 °F 20.5 °F 15.8 °F 69% 29.83 in 10.0 mi Variable 3.5 mph - N/A Snow Light Snow
4:44 PM 26.6 °F 22.6 °F 15.8 °F 64% 29.83 in 10.0 mi NW 3.5 mph - N/A Snow Light Snow
4:54 PM 24.8 °F 16.1 °F 17.6 °F 74% 29.84 in 9.0 mi West 8.1 mph - N/A Snow Light Snow
4:58 PM 25.3 °F 15.3 °F 17.6 °F 72% 29.98 in 9.0 mi West 10.4 mph - 0.00 in Snow Light Snow
5:03 PM 24.8 °F 16.9 °F 19.4 °F 80% 29.84 in 8.0 mi West 6.9 mph - N/A Snow Light Snow
5:13 PM 24.8 °F 16.1 °F 19.4 °F 80% 29.84 in 5.0 mi West 8.1 mph - N/A Snow Light Snow
5:23 PM 23.0 °F 14.7 °F 19.4 °F 86% 29.85 in 10.0 mi West 6.9 mph - N/A Snow Light Snow
5:28 PM 23.0 °F 17.0 °F 19.4 °F 86% 29.85 in 10.0 mi West 4.6 mph - N/A Snow Light Snow
5:35 PM 24.8 °F 17.9 °F 19.4 °F 80% 29.85 in 10.0 mi West 5.8 mph - N/A   Mostly Cloudy
5:49 PM 24.8 °F 17.9 °F 19.4 °F 80% 29.86 in 10.0 mi West 5.8 mph - N/A Snow Light Snow
5:58 PM 24.3 °F 15.4 °F 18.7 °F 79% 30.00 in 9.0 mi West 8.1 mph - 0.00 in Snow Light Snow
6:03 PM 24.8 °F 16.9 °F 17.6 °F 74% 29.87 in 9.0 mi West 6.9 mph - N/A Snow Light Snow
6:13 PM 24.8 °F 17.9 °F 19.4 °F 80% 29.87 in 4.0 mi WNW 5.8 mph - N/A Snow Light Snow
6:23 PM 23.0 °F 17.0 °F 19.4 °F 86% 29.88 in 6.0 mi WNW 4.6 mph - N/A Snow Light Snow
6:30 PM 23.0 °F - 19.4 °F 86% 29.88 in 10.0 mi WNW 2.3 mph - N/A   Mostly Cloudy
6:35 PM 23.0 °F - 19.4 °F 86% 29.88 in 10.0 mi West 2.3 mph - N/A   Scattered Clouds
6:52 PM 23.0 °F - 19.4 °F 86% 29.89 in 9.0 mi WSW 1.2 mph - N/A Snow Light Snow
6:58 PM 23.5 °F - 18.9 °F 82% 30.03 in 6.0 mi Calm Calm - 0.00 in Snow Light Snow
7:03 PM 23.0 °F - 19.4 °F 86% 29.89 in 4.0 mi SW 2.3 mph - N/A Snow Light Snow
7:13 PM 23.0 °F - 19.4 °F 86% 29.90 in 5.0 mi West 2.3 mph - N/A Snow Light Snow
7:18 PM 23.0 °F - 19.4 °F 86% 29.90 in 6.0 mi Variable 2.3 mph - N/A Snow Light Snow
7:33 PM 23.0 °F 18.4 °F 19.4 °F 86% 29.90 in 6.0 mi WNW 3.5 mph - N/A Snow Light Snow
7:48 PM 23.0 °F 14.7 °F 19.4 °F 86% 29.90 in 5.0 mi NNE 6.9 mph - N/A Snow Light Snow
7:53 PM 23.0 °F 13.9 °F 17.6 °F 80% 29.90 in 5.0 mi NNE 8.1 mph - N/A Snow Light Snow
7:58 PM 21.9 °F 13.4 °F 17.8 °F 84% 30.04 in 5.0 mi NNE 6.9 mph - 0.00 in Snow Light Snow
8:08 PM 21.2 °F 12.6 °F 15.8 °F 80% 29.91 in 6.0 mi NE 6.9 mph - N/A Snow Light Snow
8:13 PM 21.2 °F 12.6 °F 15.8 °F 80% 29.91 in 8.0 mi NE 6.9 mph - N/A   Overcast
8:15 PM 21.2 °F 13.6 °F 15.8 °F 80% 29.92 in 10.0 mi NE 5.8 mph - N/A   Overcast
8:25 PM 21.2 °F 13.6 °F 14.0 °F 74% 29.92 in 10.0 mi NE 5.8 mph - N/A   Overcast
8:31 PM 21.2 °F 14.9 °F 12.2 °F 68% 29.92 in 10.0 mi NNE 4.6 mph - N/A Snow Light Snow
8:41 PM 21.2 °F 13.6 °F 12.2 °F 68% 29.93 in 7.0 mi North 5.8 mph - N/A Snow Light Snow
8:58 PM 20.3 °F 12.5 °F 13.1 °F 74% 30.10 in 8.0 mi North 5.8 mph - 0.00 in Snow Light Snow
9:03 PM 19.4 °F 11.5 °F 14.0 °F 80% 29.94 in 5.0 mi North 5.8 mph - N/A Snow Light Snow
9:08 PM 19.4 °F 12.8 °F 14.0 °F 80% 29.95 in 4.0 mi North 4.6 mph - N/A Snow Light Snow
9:13 PM 19.4 °F 12.8 °F 14.0 °F 80% 29.95 in 3.0 mi NNW 4.6 mph - N/A Snow Light Snow
9:18 PM 19.4 °F 14.3 °F 14.0 °F 80% 29.95 in 4.0 mi NNW 3.5 mph - N/A Snow Light Snow
9:23 PM 19.4 °F 12.8 °F 14.0 °F 80% 29.95 in 5.0 mi NW 4.6 mph - N/A Snow Light Snow
9:38 PM 19.4 °F 14.3 °F 14.0 °F 80% 29.95 in 5.0 mi North 3.5 mph - N/A Snow Light Snow
9:43 PM 19.4 °F - 15.8 °F 86% 29.95 in 4.0 mi Variable 2.3 mph - N/A Snow Light Snow
9:48 PM 19.4 °F 12.8 °F 15.8 °F 86% 29.95 in 5.0 mi North 4.6 mph - N/A Snow Light Snow
9:53 PM 19.4 °F 12.8 °F 15.8 °F 86% 29.95 in 5.0 mi North 4.6 mph - N/A Snow Light Snow
9:58 PM 19.4 °F 14.3 °F 15.8 °F 86% 30.09 in 4.0 mi North 3.5 mph - 0.00 in Snow Light Snow
10:03 PM 19.4 °F 14.3 °F 15.8 °F 86% 29.95 in 4.0 mi North 3.5 mph - N/A Snow Light Snow
10:08 PM 19.4 °F 12.8 °F 15.8 °F 86% 29.96 in 4.0 mi North 4.6 mph - N/A Snow Light Snow
10:28 PM 19.4 °F 14.3 °F 15.8 °F 86% 29.96 in 5.0 mi NNW 3.5 mph - N/A Snow Light Snow
10:33 PM 19.4 °F 12.8 °F 14.0 °F 80% 29.96 in 4.0 mi NNW 4.6 mph - N/A Snow Light Snow
10:38 PM 19.4 °F 12.8 °F 14.0 °F 80% 29.96 in 3.0 mi NNW 4.6 mph - N/A Snow Light Snow
10:43 PM 19.4 °F 11.5 °F 15.8 °F 86% 29.96 in 2.5 mi NNW 5.8 mph - N/A Snow Light Snow
10:48 PM 17.6 °F 10.7 °F 15.8 °F 93% 29.96 in 3.0 mi NNW 4.6 mph - N/A Snow Light Snow
10:58 PM 17.6 °F 12.3 °F 15.8 °F 93% 30.12 in 3.0 mi NW 3.5 mph - 0.00 in Snow Light Snow
11:03 PM 17.6 °F 10.7 °F 15.8 °F 93% 29.96 in 4.0 mi NW 4.6 mph - N/A Snow Light Snow
11:13 PM 17.6 °F 10.7 °F 14.0 °F 86% 29.97 in 3.0 mi NW 4.6 mph - N/A Snow Light Snow
11:18 PM 17.6 °F 10.7 °F 14.0 °F 86% 29.97 in 3.0 mi NW 4.6 mph - N/A Snow Light Snow
11:28 PM 17.6 °F 9.3 °F 14.0 °F 86% 29.97 in 4.0 mi WNW 5.8 mph - N/A Snow Light Snow
11:33 PM 17.6 °F 9.3 °F 14.0 °F 86% 29.97 in 4.0 mi NW 5.8 mph - N/A Snow Light Snow
11:38 PM 17.6 °F 10.7 °F 14.0 °F 86% 29.97 in 5.0 mi NW 4.6 mph - N/A Snow Light Snow
11:48 PM 17.6 °F - 14.0 °F 86% 29.97 in 5.0 mi NW 2.3 mph - N/A Snow Light Snow
11:58 PM 17.6 °F 12.3 °F 14.0 °F 86% 30.12 in 5.0 mi NW 3.5 mph - 0.00 in Snow Light Snow